Location: El Limón
(10.3059°N, 67.6321°W)
Time: 04:15:05
(UTC+00:00)

Aurora 2 Rocket - Pass Details

Date: 14 April 2024
Orbit: 387 x 1635 km, 25.0° (Epoch: 21 May)

Event Time Altitude Azimuth Distance (km) Brightness Sun altitude
Exits shadow 09:32:10 16° 258° (WSW) 2,439 4.9 -12.4°
Maximum altitude 09:37:41 61° 335° (NNW) 947 3.4 -11.1°
Drops below altitude 10° 09:42:35 10° 56° (NE) 2,089 6.5 -9.9°
Sets 09:44:37 0° 60° (ENE) 2,847 7.6 -9.4°
